| Date | Time | Temp. (oF) | Dew Point (oF) | Rel. Hum. (%) | Press. (in.) | Wind Dir. | Wind Speed (mph) | Hourly Rainfall (in.) |
|
|---|---|---|---|---|---|---|---|---|---|
| 1 | 07/17 | 00:00 | 76 | 76 | 100 | 30.07 | SSE | 4 | 0.00 |
| 2 | 07/16 | 23:00 | 76 | 76 | 100 | 30.06 | E | 4 | 0.00 |
| 3 | 07/16 | 22:00 | 77 | 76 | 99 | 30.07 | ESE | 0 | 0.00 |
| 4 | 07/16 | 21:00 | 77 | 75 | 96 | 30.06 | ESE | 3 | 0.00 |
| 5 | 07/16 | 20:00 | 78 | 76 | 96 | 30.05 | SE | 2 | 0.00 |
| 6 | 07/16 | 19:00 | 80 | 79 | 98 | 30.05 | E | 3 | 0.00 |
| 7 | 07/16 | 18:00 | 81 | 81 | 100 | 30.04 | NE | 3 | 0.00 |
| 8 | 07/16 | 17:00 | 80 | 79 | 99 | 30.06 | ENE | 1 | 0.01 |
| 9 | 07/16 | 16:00 | 80 | 78 | 96 | 30.06 | NE | 3 | 0.02 |
| 10 | 07/16 | 15:00 | 82 | 80 | 96 | 30.06 | SSW | 0 | 0.00 |
| 11 | 07/16 | 14:00 | 82 | 80 | 95 | 30.06 | ENE | 4 | 0.07 |
| 12 | 07/16 | 13:00 | 81 | 79 | 95 | 30.07 | S | 4 | 0.01 |
| 13 | 07/16 | 12:00 | 82 | 78 | 90 | 30.09 | ESE | 7 | 0.00 |
| 14 | 07/16 | 11:00 | 80 | 79 | 99 | 30.10 | SE | 4 | 0.00 |
| 15 | 07/16 | 10:00 | 78 | 77 | 100 | 30.11 | WSW | 0 | 0.00 |
| 16 | 07/16 | 09:00 | 77 | 77 | 100 | 30.11 | SE | 0 | 0.00 |
| 17 | 07/16 | 08:00 | 76 | 76 | 100 | 30.10 | ENE | 2 | 0.00 |
| 18 | 07/16 | 07:00 | 75 | 75 | 100 | 30.10 | NE | 2 | 0.00 |
| 19 | 07/16 | 06:00 | 75 | 75 | 100 | 30.10 | E | 0 | 0.00 |
| 20 | 07/16 | 05:00 | 75 | 75 | 100 | 30.08 | NE | 3 | 0.00 |
| 21 | 07/16 | 04:00 | 74 | 73 | 100 | 30.08 | E | 1 | 0.01 |
| 22 | 07/16 | 03:00 | 74 | 73 | 100 | 30.08 | ENE | 2 | 0.00 |
| 23 | 07/16 | 02:00 | 74 | 73 | 100 | 30.08 | ENE | 2 | 0.00 |
| 24 | 07/16 | 01:00 | 74 | 73 | 100 | 30.08 | ENE | 0 | 0.00 |